Location: Unspecified
(35.6961°N, 0.0000°E)
Time: 23:06:18
(UTC+00:00)

Explorer 11/Cluster Stage 4 - Pass Details

Date: 31 May 2019
Orbit: 467 x 1260 km, 28.8° (Epoch: 19 June)

Event Time Altitude Azimuth Distance (km) Brightness Sun altitude
Rises 02:08:25 0° 261° (W) 3,914 - -24.6°
Reaches altitude 10° 02:11:33 10° 255° (WSW) 2,839 - -24.3°
Maximum altitude 02:18:00 44° 186° (S) 1,214 - -23.5°
Exits shadow 02:18:37 42° 170° (S) 1,218 7.2 -23.5°
Drops below altitude 10° 02:23:13 10° 115° (ESE) 2,294 9.1 -22.9°
Sets 02:25:31 0° 109° (ESE) 3,098 9.9 -22.6°
